Location: Bathurst
(33.4193°S, 149.5775°E)
Time: 23:15:54
(UTC+10:00)

Vanguard 3 - Pass Details

Date: 24 June 2021
Orbit: 508 x 3261 km, 33.4° (Epoch: 25 July)

Event Time Altitude Azimuth Distance (km) Brightness Sun altitude
Rises 20:25:04 0° 264° (W) 6,948 12.7 -41.3°
Reaches altitude 10° 20:29:29 10° 264° (W) 6,085 12.2 -42.3°
Maximum altitude 20:49:51 86° 349° (NNW) 3,099 9.7 -46.5°
Enters shadow 20:50:28 85° 32° (NNE) 3,084 9.7 -46.6°
